BEIDOU 3 (C01)

Last updated on Oct. 29, 2020, 5:53 a.m. UTC

1 36287U 10001A   20302.51577156 -.00000282  00000-0  00000-0 0  9995
2 36287   1.5647  34.8122 0005152 124.1232 204.5559  1.00275023 39539
UTC
Height (km)
Latitude
Longitude
Inclination
Orbital Period
UTC large
Height (km)
Speed (km/s)
/
Latitude / Longitude
Inclination (degrees)
Orbital Period (minutes)
Azimuth
Elevation
Range (km)
Doppler Factor
iOS Compass Heading
iOS Angle

Next 30 passes for location: Hong Kong

Rise time Rise Azimuth (degrees) Set time Set Azimuth (degrees) Duration Max altitude (degrees)

No matching passes for this satellites